Location: Ballingbuur
(53.0000°N, 5.7667°E)
Time: 12:58:48
(UTC+00:00)

Cosmos 1242 Rocket - Visible Passes

Search period start: 20 April 2021 00:00
Search period end: 30 April 2021 00:00
Orbit: 447 x 484 km, 81.2° (Epoch: 19 April)

Date Brightness Start Highest point End Pass type
(mag) Time Alt. Az. Time Alt. Az. Time Alt. Az.
20 Apr 3.5 23:25:18 46° N 23:25:18 46° N 23:28:00 10° N visible
21 Apr 5.3 00:59:32 10° WNW 00:59:50 10° NW 01:00:09 10° NW visible
21 Apr 3.6 22:54:37 40° NE 22:54:37 40° NE 22:57:11 10° NNE visible
22 Apr 4.9 00:28:34 15° WNW 00:28:47 16° WNW 00:31:03 10° NNW visible
22 Apr 4.0 22:23:55 28° ENE 22:23:55 28° ENE 22:26:14 10° NNE visible
22 Apr 4.4 23:57:52 24° WNW 23:57:52 24° WNW 00:00:50 10° N visible
23 Apr 4.5 21:53:11 19° ENE 21:53:11 19° ENE 21:55:03 10° NE visible
23 Apr 3.7 23:27:08 37° WNW 23:27:08 37° WNW 23:30:20 10° N visible
24 Apr 4.9 21:22:27 12° ENE 21:22:27 12° ENE 21:23:23 10° ENE visible
24 Apr 3.0 22:56:24 61° NW 22:56:24 61° NW 22:59:40 10° N visible
25 Apr 2.7 22:25:38 63° NE 22:25:38 63° NE 22:28:53 10° NNE visible
25 Apr 5.1 23:59:35 13° WNW 00:00:32 14° WNW 00:02:28 10° NNW visible
26 Apr 3.3 21:54:50 38° E 21:54:50 38° E 21:57:57 10° NNE visible
26 Apr 4.6 23:28:47 20° W 23:29:31 21° WNW 23:32:21 10° NNW visible
27 Apr 4.0 21:24:01 23° E 21:24:01 23° E 21:26:50 10° NE visible
27 Apr 3.9 22:57:58 31° W 22:58:34 33° WNW 23:01:53 10° N visible
28 Apr 4.5 20:53:11 15° E 20:53:17 15° E 20:55:20 10° NE visible
28 Apr 3.0 22:27:07 49° WSW 22:27:41 56° WNW 22:31:16 10° N visible
29 Apr 2.4 21:56:14 59° S 21:56:52 83° ESE 22:00:30 10° NNE visible
29 Apr 5.4 23:30:47 10° W 23:32:14 12° WNW 23:33:42 10° NW visible
